This is the latest recevied weather packets stored in our database for station/object AD5L. If no packets are shown the sender has not sent any weather packets the latest 10 day(s).
| Time | Temp. | Humidity | Pressure | Rain* | Wind** | Luminosity | Snow |
|---|---|---|---|---|---|---|---|
| 1777682021 | 11.67° C | 99% | 1016.1 hPa | 0 mm | - | - | - |
| 1777681412 | 11.67° C | 99% | 1016.1 hPa | 0 mm | - | - | - |
| 1777680804 | 11.67° C | 99% | 1015.9 hPa | 0 mm | - | - | - |
| 1777680214 | 11.67° C | 99% | 1015.7 hPa | 0 mm | - | - | - |
| 1777679606 | 11.67° C | 99% | 1015.8 hPa | 0.25 mm | - | - | - |
| 1777679017 | 11.67° C | 99% | 1015.8 hPa | 0.25 mm | - | - | - |
| 1777678408 | 11.67° C | 99% | 1015.8 hPa | 0.25 mm | - | - | - |
| 1777677820 | 11.67° C | 99% | 1015.8 hPa | 0.51 mm | - | - | - |
| 1777677211 | 11.67° C | 99% | 1015.2 hPa | 0.76 mm | - | - | - |
| 1777676621 | 11.67° C | 99% | 1015 hPa | 1.27 mm | - | - | - |
| 1777676013 | 11.67° C | 99% | 1015.1 hPa | 1.52 mm | - | - | - |
| 1777675424 | 12.22° C | 99% | 1014.9 hPa | 2.29 mm | - | - | - |
| 1777674806 | 12.22° C | 99% | 1014.9 hPa | 2.54 mm | - | - | - |
| 1777674228 | 12.22° C | 99% | 1015.2 hPa | 2.29 mm | - | - | - |
| 1777673609 | 12.22° C | 99% | 1015.4 hPa | 2.03 mm | - | - | - |
| 1777673029 | 12.22° C | 99% | 1015.5 hPa | 1.52 mm | - | - | - |
| 1777672410 | 12.78° C | 99% | 1015.1 hPa | 1.02 mm | - | - | - |
| 1777671801 | 12.78° C | 98% | 1014.9 hPa | 0.25 mm | - | - | - |
| 1777671213 | 12.78° C | 98% | 1014.5 hPa | 0 mm | - | - | - |
| 1777670604 | 12.78° C | 99% | 1014.3 hPa | 0 mm | - | - | - |
| 1777670014 | 12.78° C | 99% | 1014 hPa | 0.25 mm | - | - | - |
| 1777669402 | 12.78° C | 99% | 1013.3 hPa | 0.25 mm | - | - | - |
| 1777668814 | 12.78° C | 99% | 1013.1 hPa | 0.51 mm | - | - | - |
| 1777668207 | 12.78° C | 99% | 1013 hPa | 0.76 mm | - | - | - |
| 1777667614 | 13.33° C | 100% | 1012.8 hPa | 1.02 mm | - | - | - |
* Rain latest hour (hover to see other rain measurements)
** Current wind speed in m/s (hover to see current wind gust speed)